Darstellungsparameter: Aktuell verwendete Einstellungen:
Skalierung der Graphiken ... ?
xyx+y,   Skalierungsfaktor:      Skalierung: Modus: x, Faktor: 1
Darstellungszeitraum ... ?
Vom - - bis: - -   Zeitraum: 22.07.2019 - 24.07.2019
Min/Max/Avg-Anzeige ... ?
Zeige MMA aktuell
Zeige MMA Monat
Zeige MMA alles
Zeige --A aktuell
Zeige --A Monat
Zeige --A alles
Keine MMA-Anzeige
MMA:
Average (ber die Originaldaten)
MMA-Basis: 22.07.2019 - 24.07.2019
Quicknavigation für Darstellung... ?
Tage:      1T, 2T, 3T, 5T -1T -2T -3T -5T +1T +2T +3T +5T
Wochen: 1W, 2W, 3W -1W -2W -3W +1W +2W +3W
Monate: 1M, 3M, 6M -1M -3M -6M +1M +3M +6M
Jahre:    1J, 3J, 5J, 10J -1J -3J -5J -10J +1J +3J +5J +10J
Nutze für die Darstellung ... ?
Originaldaten oder Mittelwerte auf ...
Stundenbasis Tagesbasis Wochenbasis
Monatsbasis Jahresbasis      Datenbasis: Original-Daten
Darstellen als:
Statistik (Auto) Statistik J:M      Darstellung:
Zur Graphik,    zurück zur Übersicht aller Sensoren.
 
Tabellarische Datenbersicht: ?
 
Sensor: Nr:Datum:Temp:Abs-Feuchte:Windchill:Wind:
Aussen-T/F 1 22-07-2019 00:00:00 17.6 C 12 g/m*3 17.6 C 0 km/h
2 22-07-2019 00:05:00 17.5 C 11.93 g/m*3 17.5 C 0 km/h
3 22-07-2019 00:10:00 17.4 C 11.86 g/m*3 17.4 C 0 km/h
4 22-07-2019 00:15:00 17.3 C 11.79 g/m*3 17.3 C 0 km/h
5 22-07-2019 00:20:00 17.1 C 11.79 g/m*3 17.1 C 0 km/h
6 22-07-2019 00:25:00 17.1 C 11.79 g/m*3 17.1 C 0 km/h
7 22-07-2019 00:30:00 16.9 C 11.65 g/m*3 16.9 C 0 km/h
8 22-07-2019 00:35:00 16.9 C 11.79 g/m*3 16.9 C 0 km/h
9 22-07-2019 00:40:00 16.9 C 11.79 g/m*3 16.9 C 0 km/h
10 22-07-2019 00:45:00 16.8 C 11.72 g/m*3 16.8 C 0 km/h
11 22-07-2019 00:50:00 16.7 C 11.65 g/m*3 16.7 C 0 km/h
12 22-07-2019 00:55:00 16.7 C 11.65 g/m*3 16.7 C 0 km/h
13 22-07-2019 01:00:00 16.5 C 11.51 g/m*3 16.5 C 0 km/h
14 22-07-2019 01:05:00 16.4 C 11.58 g/m*3 16.4 C 0 km/h
15 22-07-2019 01:10:00 16.4 C 11.58 g/m*3 16.4 C 0 km/h
16 22-07-2019 01:15:00 16.3 C 11.65 g/m*3 16.3 C 0 km/h
17 22-07-2019 01:20:00 16.3 C 11.65 g/m*3 16.3 C 0 km/h
18 22-07-2019 01:25:00 16.2 C 11.58 g/m*3 16.2 C 0 km/h
19 22-07-2019 01:30:00 16.2 C 11.58 g/m*3 16.2 C 0 km/h
20 22-07-2019 01:35:00 16.1 C 11.65 g/m*3 16.1 C 0 km/h
21 22-07-2019 01:40:00 16 C 11.58 g/m*3 16 C 0 km/h
22 22-07-2019 01:45:00 15.9 C 11.51 g/m*3 15.9 C 0 km/h
23 22-07-2019 01:50:00 15.8 C 11.44 g/m*3 15.8 C 0 km/h
24 22-07-2019 01:55:00 15.8 C 11.58 g/m*3 15.8 C 0 km/h
25 22-07-2019 02:00:00 15.7 C 11.51 g/m*3 15.7 C 0 km/h
Sensor: Nr:Datum:Temp:Abs-Feuchte:Windchill:Wind:
Aussen-T/F 26 22-07-2019 02:05:00 15.7 C 11.64 g/m*3 15.7 C 0 km/h
27 22-07-2019 02:10:00 15.7 C 11.64 g/m*3 15.7 C 0 km/h
28 22-07-2019 02:15:00 15.7 C 11.64 g/m*3 15.7 C 0 km/h
29 22-07-2019 02:20:00 15.7 C 11.64 g/m*3 15.7 C 0 km/h
30 22-07-2019 02:25:00 15.7 C 11.64 g/m*3 15.7 C 0 km/h
31 22-07-2019 02:30:00 15.6 C 11.7 g/m*3 15.6 C 0 km/h
32 22-07-2019 02:35:00 15.6 C 11.7 g/m*3 15.6 C 0 km/h
33 22-07-2019 02:40:00 15.6 C 11.7 g/m*3 15.6 C 0 km/h
34 22-07-2019 02:45:00 15.6 C 11.7 g/m*3 15.6 C 0 km/h
35 22-07-2019 02:50:00 15.6 C 11.7 g/m*3 15.6 C 0 km/h
36 22-07-2019 02:55:00 15.5 C 11.63 g/m*3 15.5 C 0 km/h
37 22-07-2019 03:00:00 15.5 C 11.63 g/m*3 15.5 C 0 km/h
38 22-07-2019 03:05:00 15.5 C 11.63 g/m*3 15.5 C 0 km/h
39 22-07-2019 03:10:00 15.5 C 11.63 g/m*3 15.5 C 0 km/h
40 22-07-2019 03:15:00 15.4 C 11.56 g/m*3 15.4 C 0 km/h
41 22-07-2019 03:20:00 15.4 C 11.56 g/m*3 15.4 C 0 km/h
42 22-07-2019 03:25:00 15.4 C 11.56 g/m*3 15.4 C 0 km/h
43 22-07-2019 03:30:00 15.3 C 11.49 g/m*3 15.3 C 0 km/h
44 22-07-2019 03:35:00 15.3 C 11.49 g/m*3 15.3 C 0 km/h
45 22-07-2019 03:40:00 15.2 C 11.55 g/m*3 15.2 C 0 km/h
46 22-07-2019 03:45:00 15.2 C 11.55 g/m*3 15.2 C 0 km/h
47 22-07-2019 03:50:00 15.2 C 11.55 g/m*3 15.2 C 0 km/h
48 22-07-2019 03:55:00 15.1 C 11.48 g/m*3 15.1 C 0 km/h
49 22-07-2019 04:00:00 15.1 C 11.48 g/m*3 15.1 C 0 km/h
50 22-07-2019 04:05:00 15 C 11.41 g/m*3 15 C 0 km/h
Sensor: Nr:Datum:Temp:Abs-Feuchte:Windchill:Wind:
Aussen-T/F 51 22-07-2019 04:10:00 14.9 C 11.34 g/m*3 14.9 C 0 km/h
52 22-07-2019 04:15:00 14.8 C 11.27 g/m*3 14.8 C 0 km/h
53 22-07-2019 04:20:00 14.8 C 11.27 g/m*3 14.8 C 0 km/h
54 22-07-2019 04:25:00 14.7 C 11.21 g/m*3 14.7 C 0 km/h
55 22-07-2019 04:30:00 14.7 C 11.33 g/m*3 14.7 C 0 km/h
56 22-07-2019 04:35:00 14.6 C 11.26 g/m*3 14.6 C 0 km/h
57 22-07-2019 04:40:00 14.6 C 11.26 g/m*3 14.6 C 0 km/h
58 22-07-2019 04:45:00 14.6 C 11.26 g/m*3 14.6 C 0 km/h
59 22-07-2019 04:50:00 14.6 C 11.26 g/m*3 14.6 C 0 km/h
60 22-07-2019 04:55:00 14.5 C 11.19 g/m*3 14.5 C 0 km/h
61 22-07-2019 05:00:00 14.4 C 11.13 g/m*3 14.4 C 0 km/h
62 22-07-2019 05:05:00 14.4 C 11.13 g/m*3 14.4 C 0 km/h
63 22-07-2019 05:10:00 14.4 C 11.25 g/m*3 14.4 C 0 km/h
64 22-07-2019 05:15:00 14.3 C 11.18 g/m*3 14.3 C 0 km/h
65 22-07-2019 05:20:00 14.4 C 11.25 g/m*3 14.4 C 0 km/h
66 22-07-2019 05:25:00 14.3 C 11.18 g/m*3 14.3 C 0 km/h
67 22-07-2019 05:30:00 14.3 C 11.18 g/m*3 14.3 C 0 km/h
68 22-07-2019 05:35:00 14.3 C 11.18 g/m*3 14.3 C 0 km/h
69 22-07-2019 05:40:00 14.2 C 11.11 g/m*3 14.2 C 0 km/h
70 22-07-2019 05:45:00 14.2 C 11.11 g/m*3 14.2 C 0 km/h
71 22-07-2019 05:50:00 14.2 C 11.11 g/m*3 14.2 C 0 km/h
72 22-07-2019 05:55:00 14.2 C 11.23 g/m*3 14.2 C 0 km/h
73 22-07-2019 06:00:00 14.2 C 11.23 g/m*3 14.2 C 0 km/h
74 22-07-2019 06:05:00 14.2 C 11.23 g/m*3 14.2 C 0 km/h
75 22-07-2019 06:10:00 14.3 C 11.3 g/m*3 14.3 C 0 km/h
Sensor: Nr:Datum:Temp:Abs-Feuchte:Windchill:Wind:
Aussen-T/F 76 22-07-2019 06:15:00 14.3 C 11.3 g/m*3 14.3 C 0 km/h
77 22-07-2019 06:20:00 14.2 C 11.11 g/m*3 14.2 C 0 km/h
78 22-07-2019 06:25:00 14.1 C 11.04 g/m*3 14.1 C 0 km/h
79 22-07-2019 06:30:00 14.1 C 11.17 g/m*3 14.1 C 0 km/h
80 22-07-2019 06:35:00 14.1 C 11.17 g/m*3 14.1 C 0 km/h
81 22-07-2019 06:40:00 14.1 C 11.17 g/m*3 14.1 C 0 km/h
82 22-07-2019 06:45:00 14.1 C 11.17 g/m*3 14.1 C 0 km/h
83 22-07-2019 06:50:00 14.2 C 11.23 g/m*3 14.2 C 0 km/h
84 22-07-2019 06:55:00 14.2 C 11.23 g/m*3 14.2 C 0 km/h
85 22-07-2019 07:00:00 14.3 C 11.43 g/m*3 14.3 C 0 km/h
86 22-07-2019 07:05:00 14.3 C 11.43 g/m*3 14.3 C 0 km/h
87 22-07-2019 07:10:00 14.3 C 11.43 g/m*3 14.3 C 0 km/h
88 22-07-2019 07:15:00 14.4 C 11.5 g/m*3 14.4 C 0 km/h
89 22-07-2019 07:20:00 14.5 C 11.57 g/m*3 14.5 C 0 km/h
90 22-07-2019 07:25:00 14.7 C 11.71 g/m*3 14.7 C 0 km/h
91 22-07-2019 07:30:00 14.8 C 11.78 g/m*3 14.8 C 0 km/h
92 22-07-2019 07:35:00 14.9 C 11.85 g/m*3 14.9 C 0 km/h
93 22-07-2019 07:40:00 14.9 C 11.85 g/m*3 14.9 C 0 km/h
94 22-07-2019 07:45:00 15.1 C 11.87 g/m*3 15.1 C 0 km/h
95 22-07-2019 07:50:00 15.2 C 11.94 g/m*3 15.2 C 0 km/h
96 22-07-2019 07:55:00 15.3 C 12.01 g/m*3 15.3 C 0 km/h
97 22-07-2019 08:00:00 15.4 C 12.09 g/m*3 15.4 C 0 km/h
98 22-07-2019 08:05:00 15.5 C 12.16 g/m*3 15.5 C 0 km/h
99 22-07-2019 08:10:00 15.6 C 12.23 g/m*3 15.6 C 0 km/h
100 22-07-2019 08:15:00 15.7 C 12.18 g/m*3 15.7 C 0 km/h
Sensor: Nr:Datum:Temp:Abs-Feuchte:Windchill:Wind:
Aussen-T/F 101 22-07-2019 08:20:00 16 C 12.4 g/m*3 16 C 0 km/h
102 22-07-2019 08:25:00 16.2 C 12.27 g/m*3 16.2 C 0 km/h
103 22-07-2019 08:30:00 16.4 C 12.28 g/m*3 16.4 C 0 km/h
104 22-07-2019 08:35:00 16.6 C 12.43 g/m*3 16.6 C 0 km/h
105 22-07-2019 08:40:00 16.8 C 12.44 g/m*3 16.8 C 0 km/h
106 22-07-2019 08:45:00 16.9 C 12.51 g/m*3 16.9 C 0 km/h
107 22-07-2019 08:50:00 17.1 C 12.66 g/m*3 17.1 C 0 km/h
108 22-07-2019 08:55:00 17.2 C 12.74 g/m*3 17.2 C 0 km/h
109 22-07-2019 09:00:00 17.3 C 12.82 g/m*3 17.3 C 0 km/h
110 22-07-2019 09:05:00 17.4 C 12.75 g/m*3 17.4 C 0 km/h
111 22-07-2019 09:10:00 17.6 C 12.75 g/m*3 17.6 C 0 km/h
112 22-07-2019 09:15:00 17.7 C 12.98 g/m*3 17.7 C 0 km/h
113 22-07-2019 09:20:00 17.9 C 12.98 g/m*3 17.9 C 0 km/h
114 22-07-2019 09:25:00 18.1 C 12.82 g/m*3 18.1 C 0 km/h
115 22-07-2019 09:30:00 18.3 C 12.98 g/m*3 18.3 C 0 km/h
116 22-07-2019 09:35:00 18.6 C 13.05 g/m*3 18.6 C 0 km/h
117 22-07-2019 09:40:00 18.8 C 13.37 g/m*3 18.8 C 0 km/h
118 22-07-2019 09:45:00 18.8 C 13.21 g/m*3 18.8 C 0 km/h
119 22-07-2019 09:50:00 18.9 C 13.45 g/m*3 18.9 C 0 km/h
120 22-07-2019 09:55:00 19.1 C 13.44 g/m*3 19.1 C 0 km/h
121 22-07-2019 10:00:00 19.3 C 13.6 g/m*3 19.3 C 0 km/h
122 22-07-2019 10:05:00 19.5 C 13.59 g/m*3 19.5 C 0 km/h
123 22-07-2019 10:10:00 19.7 C 13.41 g/m*3 19.7 C 0 km/h
124 22-07-2019 10:15:00 19.8 C 13.15 g/m*3 19.8 C 0 km/h
125 22-07-2019 10:20:00 20.2 C 13.29 g/m*3 20.2 C 0 km/h
Sensor: Nr:Datum:Temp:Abs-Feuchte:Windchill:Wind:
Aussen-T/F 126 22-07-2019 10:25:00 20.6 C 13.6 g/m*3 20.6 C 0 km/h
127 22-07-2019 10:30:00 20.8 C 13.58 g/m*3 20.8 C 0 km/h
128 22-07-2019 10:35:00 21.2 C 13.34 g/m*3 21.2 C 0 km/h
129 22-07-2019 10:40:00 21.6 C 13.47 g/m*3 21.6 C 0 km/h
130 22-07-2019 10:45:00 22 C 13.97 g/m*3 22 C 0 km/h
131 22-07-2019 10:50:00 22.3 C 13.23 g/m*3 22.3 C 0 km/h
132 22-07-2019 10:55:00 22.7 C 12.73 g/m*3 22.7 C 0 km/h
133 22-07-2019 11:00:00 23.1 C 12.4 g/m*3 23.1 C 0 km/h
134 22-07-2019 11:05:00 23.3 C 12.75 g/m*3 23.3 C 0 km/h
135 22-07-2019 11:10:00 23.4 C 12.62 g/m*3 23.4 C 3.2 km/h
136 22-07-2019 11:15:00 23.6 C 12.97 g/m*3 23.6 C 6.4 km/h
137 22-07-2019 11:20:00 23.7 C 12.62 g/m*3 23.7 C 4.8 km/h
138 22-07-2019 11:25:00 23.8 C 12.69 g/m*3 23.8 C 4.8 km/h
139 22-07-2019 11:30:00 24.1 C 12.69 g/m*3 24.1 C 8.1 km/h
140 22-07-2019 11:35:00 24.3 C 12.61 g/m*3 24.3 C 9.7 km/h
141 22-07-2019 11:40:00 24.4 C 12.46 g/m*3 24.4 C 6.4 km/h
142 22-07-2019 11:45:00 24.6 C 12.6 g/m*3 24.6 C 6.4 km/h
143 22-07-2019 11:50:00 24.8 C 12.52 g/m*3 24.8 C 4.8 km/h
144 22-07-2019 11:55:00 25 C 12.43 g/m*3 25 C 8.1 km/h
145 22-07-2019 12:00:00 25.1 C 12.5 g/m*3 25.1 C 11.3 km/h
146 22-07-2019 12:05:00 25.3 C 12.41 g/m*3 25.3 C 11.3 km/h
147 22-07-2019 12:10:00 25.3 C 12.41 g/m*3 25.3 C 11.3 km/h
148 22-07-2019 12:15:00 25.3 C 12.41 g/m*3 25.3 C 11.3 km/h
149 22-07-2019 12:20:00 25.4 C 12.48 g/m*3 25.4 C 6.4 km/h
150 22-07-2019 12:25:00 25.4 C 12.48 g/m*3 25.4 C 4.8 km/h
Sensor: Nr:Datum:Temp:Abs-Feuchte:Windchill:Wind:
Aussen-T/F 151 22-07-2019 12:30:00 25.5 C 12.55 g/m*3 25.5 C 6.4 km/h
152 22-07-2019 12:35:00 25.7 C 12.69 g/m*3 25.7 C 6.4 km/h
153 22-07-2019 12:40:00 25.9 C 12.59 g/m*3 25.9 C 8.1 km/h
154 22-07-2019 12:45:00 25.9 C 12.59 g/m*3 25.9 C 8.1 km/h
155 22-07-2019 12:50:00 25.9 C 12.35 g/m*3 25.9 C 12.9 km/h
156 22-07-2019 12:55:00 26 C 12.42 g/m*3 26 C 11.3 km/h
157 22-07-2019 13:00:00 26 C 12.42 g/m*3 26 C 9.7 km/h
158 22-07-2019 13:05:00 26 C 12.42 g/m*3 26 C 3.2 km/h
159 22-07-2019 13:10:00 26.1 C 12.49 g/m*3 26.1 C 8.1 km/h
160 22-07-2019 13:15:00 26.2 C 12.56 g/m*3 26.2 C 9.7 km/h
161 22-07-2019 13:20:00 26.2 C 12.31 g/m*3 26.2 C 8.1 km/h
162 22-07-2019 13:25:00 26.3 C 12.63 g/m*3 26.3 C 8.1 km/h
163 22-07-2019 13:30:00 26.3 C 12.63 g/m*3 26.3 C 9.7 km/h
164 22-07-2019 13:35:00 26.4 C 12.45 g/m*3 26.4 C 8.1 km/h
165 22-07-2019 13:40:00 26.6 C 12.59 g/m*3 26.6 C 6.4 km/h
166 22-07-2019 13:45:00 26.7 C 12.66 g/m*3 26.7 C 6.4 km/h
167 22-07-2019 13:50:00 27 C 12.61 g/m*3 27 C 6.4 km/h
168 22-07-2019 13:55:00 27.2 C 12.23 g/m*3 27.2 C 11.3 km/h
169 22-07-2019 14:00:00 27.2 C 12.49 g/m*3 27.2 C 1.6 km/h
170 22-07-2019 14:05:00 27.3 C 12.3 g/m*3 27.3 C 8.1 km/h
171 22-07-2019 14:10:00 27.4 C 12.1 g/m*3 27.4 C 9.7 km/h
172 22-07-2019 14:15:00 27.7 C 12.3 g/m*3 27.7 C 8.1 km/h
173 22-07-2019 14:20:00 27.7 C 12.04 g/m*3 27.7 C 6.4 km/h
174 22-07-2019 14:25:00 27.7 C 12.04 g/m*3 27.7 C 6.4 km/h
175 22-07-2019 14:30:00 27.7 C 12.04 g/m*3 27.7 C 1.6 km/h
Sensor: Nr:Datum:Temp:Abs-Feuchte:Windchill:Wind:
Aussen-T/F 176 22-07-2019 14:35:00 27.8 C 12.64 g/m*3 27.8 C 6.4 km/h
177 22-07-2019 14:40:00 28.1 C 12.58 g/m*3 28.1 C 8.1 km/h
178 22-07-2019 14:45:00 28.3 C 12.44 g/m*3 28.3 C 9.7 km/h
179 22-07-2019 14:50:00 28.2 C 12.37 g/m*3 28.2 C 8.1 km/h
180 22-07-2019 14:55:00 28.2 C 12.1 g/m*3 28.2 C 9.7 km/h
181 22-07-2019 15:00:00 28.3 C 12.44 g/m*3 28.3 C 11.3 km/h
182 22-07-2019 15:05:00 28.4 C 12.51 g/m*3 28.4 C 11.3 km/h
183 22-07-2019 15:10:00 28.6 C 12.65 g/m*3 28.6 C 11.3 km/h
184 22-07-2019 15:15:00 28.8 C 12.5 g/m*3 28.8 C 11.3 km/h
185 22-07-2019 15:20:00 28.9 C 12.57 g/m*3 28.9 C 8.1 km/h
186 22-07-2019 15:25:00 29.1 C 12.13 g/m*3 29.1 C 11.3 km/h
187 22-07-2019 15:30:00 29.2 C 12.2 g/m*3 29.2 C 11.3 km/h
188 22-07-2019 15:35:00 29.1 C 12.13 g/m*3 29.1 C 8.1 km/h
189 22-07-2019 15:40:00 29.2 C 12.78 g/m*3 29.2 C 8.1 km/h
190 22-07-2019 15:45:00 29.4 C 12.33 g/m*3 29.4 C 8.1 km/h
191 22-07-2019 15:50:00 29.7 C 12.23 g/m*3 29.7 C 8.1 km/h
192 22-07-2019 15:55:00 29.9 C 12.37 g/m*3 29.9 C 6.4 km/h
193 22-07-2019 16:00:00 30.2 C 12.57 g/m*3 30.2 C 4.8 km/h
194 22-07-2019 16:05:00 30.4 C 12.08 g/m*3 30.4 C 11.3 km/h
195 22-07-2019 16:10:00 30.7 C 12.6 g/m*3 30.7 C 12.9 km/h
196 22-07-2019 16:15:00 30.8 C 12.35 g/m*3 30.8 C 8.1 km/h
197 22-07-2019 16:20:00 30.9 C 12.1 g/m*3 30.9 C 12.9 km/h
198 22-07-2019 16:25:00 30.8 C 12.35 g/m*3 30.8 C 14.5 km/h
199 22-07-2019 16:30:00 30.9 C 12.1 g/m*3 30.9 C 12.9 km/h
200 22-07-2019 16:35:00 30.8 C 12.03 g/m*3 30.8 C 11.3 km/h
Sensor: Nr:Datum:Temp:Abs-Feuchte:Windchill:Wind:
Aussen-T/F 201 22-07-2019 16:40:00 30.7 C 12.28 g/m*3 30.7 C 9.7 km/h
202 22-07-2019 16:45:00 31 C 12.48 g/m*3 31 C 11.3 km/h
203 22-07-2019 16:50:00 31.2 C 12.29 g/m*3 31.2 C 9.7 km/h
204 22-07-2019 16:55:00 31.3 C 12.03 g/m*3 31.3 C 9.7 km/h
205 22-07-2019 17:00:00 31.4 C 12.42 g/m*3 31.4 C 9.7 km/h
206 22-07-2019 17:05:00 31.6 C 12.23 g/m*3 31.6 C 4.8 km/h
207 22-07-2019 17:10:00 31.3 C 12.03 g/m*3 31.3 C 12.9 km/h
208 22-07-2019 17:15:00 31.2 C 11.97 g/m*3 31.2 C 8.1 km/h
209 22-07-2019 17:20:00 31.2 C 11.97 g/m*3 31.2 C 6.4 km/h
210 22-07-2019 17:25:00 31.3 C 12.03 g/m*3 31.3 C 8.1 km/h
211 22-07-2019 17:30:00 31.3 C 12.03 g/m*3 31.3 C 8.1 km/h
212 22-07-2019 17:35:00 31.4 C 12.1 g/m*3 31.4 C 11.3 km/h
213 22-07-2019 17:40:00 31.7 C 12.29 g/m*3 31.7 C 9.7 km/h
214 22-07-2019 17:45:00 31.8 C 12.02 g/m*3 31.8 C 4.8 km/h
215 22-07-2019 17:50:00 31.9 C 12.09 g/m*3 31.9 C 4.8 km/h
216 22-07-2019 17:55:00 32.1 C 12.22 g/m*3 32.1 C 4.8 km/h
217 22-07-2019 18:00:00 32.1 C 11.88 g/m*3 32.1 C 9.7 km/h
218 22-07-2019 18:05:00 32 C 12.15 g/m*3 32 C 9.7 km/h
219 22-07-2019 18:10:00 32 C 12.15 g/m*3 32 C 11.3 km/h
220 22-07-2019 18:15:00 32.1 C 12.22 g/m*3 32.1 C 6.4 km/h
221 22-07-2019 18:20:00 32.1 C 12.22 g/m*3 32.1 C 9.7 km/h
222 22-07-2019 18:25:00 32.2 C 12.28 g/m*3 32.2 C 4.8 km/h
223 22-07-2019 18:30:00 32.3 C 12.01 g/m*3 32.3 C 3.2 km/h
224 22-07-2019 18:35:00 32.3 C 12.01 g/m*3 32.3 C 3.2 km/h
225 22-07-2019 18:40:00 32.6 C 12.2 g/m*3 32.6 C 1.6 km/h
Sensor: Nr:Datum:Temp:Abs-Feuchte:Windchill:Wind:
Aussen-T/F 226 22-07-2019 18:45:00 32.7 C 12.26 g/m*3 32.7 C 3.2 km/h
227 22-07-2019 18:50:00 32.8 C 11.98 g/m*3 32.8 C 6.4 km/h
228 22-07-2019 18:55:00 32.6 C 12.2 g/m*3 32.6 C 9.7 km/h
229 22-07-2019 19:00:00 32.3 C 12.35 g/m*3 32.3 C 6.4 km/h
230 22-07-2019 19:05:00 32.3 C 12.01 g/m*3 32.3 C 6.4 km/h
231 22-07-2019 19:10:00 32.2 C 11.6 g/m*3 32.2 C 8.1 km/h
232 22-07-2019 19:15:00 32 C 11.82 g/m*3 32 C 6.4 km/h
233 22-07-2019 19:20:00 31.9 C 11.75 g/m*3 31.9 C 3.2 km/h
234 22-07-2019 19:25:00 31.9 C 12.09 g/m*3 31.9 C 6.4 km/h
235 22-07-2019 19:30:00 31.7 C 11.96 g/m*3 31.7 C 11.3 km/h
236 22-07-2019 19:35:00 31.2 C 11.97 g/m*3 31.2 C 9.7 km/h
237 22-07-2019 19:40:00 30.8 C 11.71 g/m*3 30.8 C 8.1 km/h
238 22-07-2019 19:45:00 30.7 C 11.97 g/m*3 30.7 C 6.4 km/h
239 22-07-2019 19:50:00 30.4 C 11.77 g/m*3 30.4 C 6.4 km/h
240 22-07-2019 19:55:00 30.3 C 12.02 g/m*3 30.3 C 9.7 km/h
241 22-07-2019 20:00:00 30.2 C 12.26 g/m*3 30.2 C 6.4 km/h
242 22-07-2019 20:05:00 30.1 C 12.2 g/m*3 30.1 C 4.8 km/h
243 22-07-2019 20:10:00 30 C 12.13 g/m*3 30 C 4.8 km/h
244 22-07-2019 20:15:00 29.9 C 12.06 g/m*3 29.9 C 8.1 km/h
245 22-07-2019 20:20:00 29.8 C 12 g/m*3 29.8 C 6.4 km/h
246 22-07-2019 20:25:00 29.7 C 12.53 g/m*3 29.7 C 8.1 km/h
247 22-07-2019 20:30:00 29.4 C 12.33 g/m*3 29.4 C 9.7 km/h
248 22-07-2019 20:35:00 29.3 C 12.55 g/m*3 29.3 C 4.8 km/h
249 22-07-2019 20:40:00 29.1 C 12.71 g/m*3 29.1 C 11.3 km/h
250 22-07-2019 20:45:00 28.8 C 12.79 g/m*3 28.8 C 6.4 km/h
Sensor: Nr:Datum:Temp:Abs-Feuchte:Windchill:Wind:
Aussen-T/F 251 22-07-2019 20:50:00 28.6 C 13.49 g/m*3 28.6 C 3.2 km/h
252 22-07-2019 20:55:00 28.2 C 14.02 g/m*3 28.2 C 4.8 km/h
253 22-07-2019 21:00:00 27.9 C 13.79 g/m*3 27.9 C 0 km/h
254 22-07-2019 21:05:00 27.4 C 13.68 g/m*3 27.4 C 0 km/h
255 22-07-2019 21:10:00 26.9 C 13.56 g/m*3 26.9 C 0 km/h
256 22-07-2019 21:15:00 26.4 C 13.69 g/m*3 26.4 C 0 km/h
257 22-07-2019 21:20:00 26 C 13.63 g/m*3 26 C 0 km/h
258 22-07-2019 21:25:00 25.6 C 13.57 g/m*3 25.6 C 0 km/h
259 22-07-2019 21:30:00 25.2 C 13.27 g/m*3 25.2 C 0 km/h
260 22-07-2019 21:35:00 24.8 C 13.2 g/m*3 24.8 C 0 km/h
261 22-07-2019 21:40:00 24.6 C 13.05 g/m*3 24.6 C 0 km/h
262 22-07-2019 21:45:00 24.3 C 13.28 g/m*3 24.3 C 0 km/h
263 22-07-2019 21:50:00 24.1 C 13.13 g/m*3 24.1 C 0 km/h
264 22-07-2019 21:55:00 23.9 C 13.2 g/m*3 23.9 C 0 km/h
265 22-07-2019 22:00:00 23.7 C 13.05 g/m*3 23.7 C 0 km/h
266 22-07-2019 22:05:00 23.6 C 12.97 g/m*3 23.6 C 0 km/h
267 22-07-2019 22:10:00 23.4 C 13.04 g/m*3 23.4 C 0 km/h
268 22-07-2019 22:15:00 23.3 C 12.96 g/m*3 23.3 C 0 km/h
269 22-07-2019 22:20:00 23.1 C 12.82 g/m*3 23.1 C 0 km/h
270 22-07-2019 22:25:00 22.9 C 12.88 g/m*3 22.9 C 0 km/h
271 22-07-2019 22:30:00 22.8 C 13 g/m*3 22.8 C 0 km/h
272 22-07-2019 22:35:00 22.6 C 13.06 g/m*3 22.6 C 0 km/h
273 22-07-2019 22:40:00 22.4 C 13.11 g/m*3 22.4 C 0 km/h
274 22-07-2019 22:45:00 22.3 C 13.03 g/m*3 22.3 C 0 km/h
275 22-07-2019 22:50:00 22.1 C 12.88 g/m*3 22.1 C 0 km/h
Sensor: Nr:Datum:Temp:Abs-Feuchte:Windchill:Wind:
Aussen-T/F 276 22-07-2019 22:55:00 22 C 12.81 g/m*3 22 C 0 km/h
277 22-07-2019 23:00:00 21.9 C 12.93 g/m*3 21.9 C 0 km/h
278 22-07-2019 23:05:00 21.7 C 12.97 g/m*3 21.7 C 0 km/h
279 22-07-2019 23:10:00 21.4 C 12.94 g/m*3 21.4 C 0 km/h
280 22-07-2019 23:15:00 21.2 C 12.97 g/m*3 21.2 C 0 km/h
281 22-07-2019 23:20:00 21.1 C 12.9 g/m*3 21.1 C 0 km/h
282 22-07-2019 23:25:00 21 C 13.01 g/m*3 21 C 0 km/h
283 22-07-2019 23:30:00 20.8 C 13.04 g/m*3 20.8 C 0 km/h
284 22-07-2019 23:35:00 20.7 C 12.96 g/m*3 20.7 C 0 km/h
285 22-07-2019 23:40:00 20.5 C 12.81 g/m*3 20.5 C 0 km/h
286 22-07-2019 23:45:00 20.4 C 12.91 g/m*3 20.4 C 0 km/h
287 22-07-2019 23:50:00 20.3 C 13.01 g/m*3 20.3 C 0 km/h
288 22-07-2019 23:55:00 20.1 C 12.86 g/m*3 20.1 C 0 km/h
289 23-07-2019 00:00:00 20 C 12.96 g/m*3 20 C 0 km/h
290 23-07-2019 00:05:00 19.8 C 12.81 g/m*3 19.8 C 0 km/h
291 23-07-2019 00:10:00 19.8 C 12.81 g/m*3 19.8 C 0 km/h
292 23-07-2019 00:15:00 19.6 C 12.66 g/m*3 19.6 C 0 km/h
293 23-07-2019 00:20:00 19.5 C 12.75 g/m*3 19.5 C 0 km/h
294 23-07-2019 00:25:00 19.4 C 12.68 g/m*3 19.4 C 0 km/h
295 23-07-2019 00:30:00 19.3 C 12.61 g/m*3 19.3 C 0 km/h
296 23-07-2019 00:35:00 19.2 C 12.7 g/m*3 19.2 C 0 km/h
297 23-07-2019 00:40:00 19.2 C 12.7 g/m*3 19.2 C 0 km/h
298 23-07-2019 00:45:00 19.1 C 12.62 g/m*3 19.1 C 0 km/h
299 23-07-2019 00:50:00 19 C 12.71 g/m*3 19 C 0 km/h
300 23-07-2019 00:55:00 18.9 C 12.64 g/m*3 18.9 C 0 km/h
Sensor: Nr:Datum:Temp:Abs-Feuchte:Windchill:Wind:
Aussen-T/F 301 23-07-2019 01:00:00 18.8 C 12.56 g/m*3 18.8 C 0 km/h
302 23-07-2019 01:05:00 18.8 C 12.56 g/m*3 18.8 C 0 km/h
303 23-07-2019 01:10:00 18.7 C 12.65 g/m*3 18.7 C 0 km/h
304 23-07-2019 01:15:00 18.6 C 12.57 g/m*3 18.6 C 0 km/h
305 23-07-2019 01:20:00 18.5 C 12.66 g/m*3 18.5 C 0 km/h
306 23-07-2019 01:25:00 18.4 C 12.58 g/m*3 18.4 C 0 km/h
307 23-07-2019 01:30:00 18.3 C 12.51 g/m*3 18.3 C 0 km/h
308 23-07-2019 01:35:00 18.2 C 12.43 g/m*3 18.2 C 0 km/h
309 23-07-2019 01:40:00 18.2 C 12.59 g/m*3 18.2 C 0 km/h
310 23-07-2019 01:45:00 18.1 C 12.52 g/m*3 18.1 C 0 km/h
311 23-07-2019 01:50:00 18 C 12.44 g/m*3 18 C 0 km/h
312 23-07-2019 01:55:00 17.9 C 12.37 g/m*3 17.9 C 0 km/h
313 23-07-2019 02:00:00 17.9 C 12.37 g/m*3 17.9 C 0 km/h
314 23-07-2019 02:05:00 17.8 C 12.45 g/m*3 17.8 C 0 km/h
315 23-07-2019 02:10:00 17.8 C 12.45 g/m*3 17.8 C 0 km/h
316 23-07-2019 02:15:00 17.7 C 12.37 g/m*3 17.7 C 0 km/h
317 23-07-2019 02:20:00 17.7 C 12.37 g/m*3 17.7 C 0 km/h
318 23-07-2019 02:25:00 17.6 C 12.3 g/m*3 17.6 C 0 km/h
319 23-07-2019 02:30:00 17.5 C 12.37 g/m*3 17.5 C 0 km/h
320 23-07-2019 02:35:00 17.4 C 12.3 g/m*3 17.4 C 0 km/h
321 23-07-2019 02:40:00 17.4 C 12.3 g/m*3 17.4 C 0 km/h
322 23-07-2019 02:45:00 17.3 C 12.23 g/m*3 17.3 C 0 km/h
323 23-07-2019 02:50:00 17.3 C 12.23 g/m*3 17.3 C 0 km/h
324 23-07-2019 02:55:00 17.3 C 12.37 g/m*3 17.3 C 0 km/h
325 23-07-2019 03:00:00 17.2 C 12.3 g/m*3 17.2 C 0 km/h
Sensor: Nr:Datum:Temp:Abs-Feuchte:Windchill:Wind:
Aussen-T/F 326 23-07-2019 03:05:00 17.1 C 12.23 g/m*3 17.1 C 0 km/h
327 23-07-2019 03:10:00 16.9 C 12.08 g/m*3 16.9 C 0 km/h
328 23-07-2019 03:15:00 16.9 C 12.23 g/m*3 16.9 C 0 km/h
329 23-07-2019 03:20:00 16.9 C 12.23 g/m*3 16.9 C 0 km/h
330 23-07-2019 03:25:00 16.9 C 12.23 g/m*3 16.9 C 0 km/h
331 23-07-2019 03:30:00 16.8 C 12.15 g/m*3 16.8 C 0 km/h
332 23-07-2019 03:35:00 16.8 C 12.15 g/m*3 16.8 C 0 km/h
333 23-07-2019 03:40:00 16.7 C 12.22 g/m*3 16.7 C 0 km/h
334 23-07-2019 03:45:00 16.7 C 12.22 g/m*3 16.7 C 0 km/h
335 23-07-2019 03:50:00 16.6 C 12.15 g/m*3 16.6 C 0 km/h
336 23-07-2019 03:55:00 16.6 C 12.15 g/m*3 16.6 C 0 km/h
337 23-07-2019 04:00:00 16.6 C 12.15 g/m*3 16.6 C 0 km/h
338 23-07-2019 04:05:00 16.5 C 12.22 g/m*3 16.5 C 0 km/h
339 23-07-2019 04:10:00 16.4 C 12.14 g/m*3 16.4 C 0 km/h
340 23-07-2019 04:15:00 16.4 C 12.14 g/m*3 16.4 C 0 km/h
341 23-07-2019 04:20:00 16.3 C 12.07 g/m*3 16.3 C 0 km/h
342 23-07-2019 04:25:00 16.3 C 12.07 g/m*3 16.3 C 0 km/h
343 23-07-2019 04:30:00 16.2 C 12.14 g/m*3 16.2 C 0 km/h
344 23-07-2019 04:35:00 16.2 C 12.14 g/m*3 16.2 C 0 km/h
345 23-07-2019 04:40:00 16.2 C 12.14 g/m*3 16.2 C 0 km/h
346 23-07-2019 04:45:00 16.2 C 12.14 g/m*3 16.2 C 0 km/h
347 23-07-2019 04:50:00 16.1 C 12.06 g/m*3 16.1 C 0 km/h
348 23-07-2019 04:55:00 16.1 C 12.06 g/m*3 16.1 C 0 km/h
349 23-07-2019 05:00:00 16.1 C 12.06 g/m*3 16.1 C 0 km/h
350 23-07-2019 05:05:00 16 C 12.13 g/m*3 16 C 0 km/h
Sensor: Nr:Datum:Temp:Abs-Feuchte:Windchill:Wind:
Aussen-T/F 351 23-07-2019 05:10:00 16 C 12.13 g/m*3 16 C 0 km/h
352 23-07-2019 05:15:00 15.9 C 12.05 g/m*3 15.9 C 0 km/h
353 23-07-2019 05:20:00 15.9 C 12.05 g/m*3 15.9 C 0 km/h
354 23-07-2019 05:25:00 15.8 C 11.98 g/m*3 15.8 C 0 km/h
355 23-07-2019 05:30:00 15.8 C 11.98 g/m*3 15.8 C 0 km/h
356 23-07-2019 05:35:00 15.8 C 11.98 g/m*3 15.8 C 0 km/h
357 23-07-2019 05:40:00 15.7 C 11.91 g/m*3 15.7 C 0 km/h
358 23-07-2019 05:45:00 15.7 C 11.91 g/m*3 15.7 C 0 km/h
359 23-07-2019 05:50:00 15.6 C 11.97 g/m*3 15.6 C 0 km/h
360 23-07-2019 05:55:00 15.6 C 11.97 g/m*3 15.6 C 0 km/h
361 23-07-2019 06:00:00 15.6 C 11.97 g/m*3 15.6 C 0 km/h
362 23-07-2019 06:05:00 15.6 C 11.97 g/m*3 15.6 C 0 km/h
363 23-07-2019 06:10:00 15.6 C 12.1 g/m*3 15.6 C 0 km/h
364 23-07-2019 06:15:00 15.6 C 12.1 g/m*3 15.6 C 0 km/h
365 23-07-2019 06:20:00 15.6 C 12.1 g/m*3 15.6 C 0 km/h
366 23-07-2019 06:25:00 15.6 C 12.1 g/m*3 15.6 C 0 km/h
367 23-07-2019 06:30:00 15.7 C 12.18 g/m*3 15.7 C 0 km/h
368 23-07-2019 06:35:00 15.7 C 12.18 g/m*3 15.7 C 0 km/h
369 23-07-2019 06:40:00 15.7 C 12.18 g/m*3 15.7 C 0 km/h
370 23-07-2019 06:45:00 15.7 C 12.18 g/m*3 15.7 C 0 km/h
371 23-07-2019 06:50:00 15.7 C 12.18 g/m*3 15.7 C 0 km/h
372 23-07-2019 06:55:00 15.8 C 12.25 g/m*3 15.8 C 0 km/h
373 23-07-2019 07:00:00 15.8 C 12.25 g/m*3 15.8 C 0 km/h
374 23-07-2019 07:05:00 15.9 C 12.32 g/m*3 15.9 C 0 km/h
375 23-07-2019 07:10:00 16 C 12.4 g/m*3 16 C 0 km/h
Sensor: Nr:Datum:Temp:Abs-Feuchte:Windchill:Wind:
Aussen-T/F 376 23-07-2019 07:15:00 16.1 C 12.47 g/m*3 16.1 C 0 km/h
377 23-07-2019 07:20:00 16.1 C 12.47 g/m*3 16.1 C 0 km/h
378 23-07-2019 07:25:00 16.1 C 12.47 g/m*3 16.1 C 0 km/h
379 23-07-2019 07:30:00 16.1 C 12.47 g/m*3 16.1 C 0 km/h
380 23-07-2019 07:35:00 16.2 C 12.55 g/m*3 16.2 C 0 km/h
381 23-07-2019 07:40:00 16.2 C 12.55 g/m*3 16.2 C 0 km/h
382 23-07-2019 07:45:00 16.2 C 12.55 g/m*3 16.2 C 0 km/h
383 23-07-2019 07:50:00 16.3 C 12.62 g/m*3 16.3 C 0 km/h
384 23-07-2019 07:55:00 16.3 C 12.62 g/m*3 16.3 C 0 km/h
385 23-07-2019 08:00:00 16.4 C 12.7 g/m*3 16.4 C 0 km/h
386 23-07-2019 08:05:00 16.4 C 12.7 g/m*3 16.4 C 0 km/h
387 23-07-2019 08:10:00 16.5 C 12.78 g/m*3 16.5 C 0 km/h
388 23-07-2019 08:15:00 16.6 C 12.86 g/m*3 16.6 C 0 km/h
389 23-07-2019 08:20:00 16.7 C 12.93 g/m*3 16.7 C 0 km/h
390 23-07-2019 08:25:00 16.7 C 12.93 g/m*3 16.7 C 0 km/h
391 23-07-2019 08:30:00 16.8 C 13.01 g/m*3 16.8 C 0 km/h
392 23-07-2019 08:35:00 16.9 C 12.94 g/m*3 16.9 C 0 km/h
393 23-07-2019 08:40:00 17.1 C 13.1 g/m*3 17.1 C 0 km/h
394 23-07-2019 08:45:00 17.2 C 13.18 g/m*3 17.2 C 0 km/h
395 23-07-2019 08:50:00 17.3 C 13.26 g/m*3 17.3 C 0 km/h
396 23-07-2019 08:55:00 17.4 C 13.34 g/m*3 17.4 C 0 km/h
397 23-07-2019 09:00:00 17.6 C 13.5 g/m*3 17.6 C 0 km/h
398 23-07-2019 09:05:00 17.7 C 13.43 g/m*3 17.7 C 0 km/h
399 23-07-2019 09:10:00 17.8 C 13.51 g/m*3 17.8 C 0 km/h
400 23-07-2019 09:15:00 18.1 C 13.75 g/m*3 18.1 C 0 km/h
Sensor: Nr:Datum:Temp:Abs-Feuchte:Windchill:Wind:
Aussen-T/F 401 23-07-2019 09:20:00 18.3 C 13.76 g/m*3 18.3 C 0 km/h
402 23-07-2019 09:25:00 18.6 C 14.01 g/m*3 18.6 C 0 km/h
403 23-07-2019 09:30:00 18.8 C 14.01 g/m*3 18.8 C 0 km/h
404 23-07-2019 09:35:00 19 C 14.18 g/m*3 19 C 0 km/h
405 23-07-2019 09:40:00 19.2 C 14.18 g/m*3 19.2 C 0 km/h
406 23-07-2019 09:45:00 19.5 C 14.27 g/m*3 19.5 C 0 km/h
407 23-07-2019 09:50:00 19.8 C 14.35 g/m*3 19.8 C 0 km/h
408 23-07-2019 09:55:00 20.1 C 14.43 g/m*3 20.1 C 0 km/h
409 23-07-2019 10:00:00 20.4 C 14.68 g/m*3 20.4 C 0 km/h
410 23-07-2019 10:05:00 20.7 C 14.58 g/m*3 20.7 C 0 km/h
411 23-07-2019 10:10:00 21.1 C 14.74 g/m*3 21.1 C 0 km/h
412 23-07-2019 10:15:00 21.3 C 14.73 g/m*3 21.3 C 0 km/h
413 23-07-2019 10:20:00 21.6 C 14.98 g/m*3 21.6 C 0 km/h
414 23-07-2019 10:25:00 21.9 C 14.86 g/m*3 21.9 C 0 km/h
415 23-07-2019 10:30:00 22.3 C 15.2 g/m*3 22.3 C 0 km/h
416 23-07-2019 10:35:00 22.7 C 15.36 g/m*3 22.7 C 0 km/h
417 23-07-2019 10:40:00 23.2 C 15.18 g/m*3 23.2 C 0 km/h
418 23-07-2019 10:45:00 23.8 C 14.2 g/m*3 23.8 C 8.1 km/h
419 23-07-2019 10:50:00 24.8 C 15.02 g/m*3 24.8 C 8.1 km/h
420 23-07-2019 10:55:00 25.3 C 14.75 g/m*3 25.3 C 3.2 km/h
421 23-07-2019 11:00:00 25.6 C 14.52 g/m*3 25.6 C 3.2 km/h
422 23-07-2019 11:05:00 25.9 C 14.04 g/m*3 25.9 C 4.8 km/h
423 23-07-2019 11:10:00 26.4 C 14.19 g/m*3 26.4 C 6.4 km/h
424 23-07-2019 11:15:00 26.9 C 14.59 g/m*3 26.9 C 6.4 km/h
425 23-07-2019 11:20:00 27.1 C 14.75 g/m*3 27.1 C 3.2 km/h
Sensor: Nr:Datum:Temp:Abs-Feuchte:Windchill:Wind:
Aussen-T/F 426 23-07-2019 11:25:00 27.1 C 13.72 g/m*3 27.1 C 4.8 km/h
427 23-07-2019 11:30:00 27.4 C 13.94 g/m*3 27.4 C 6.4 km/h
428 23-07-2019 11:35:00 27.8 C 13.72 g/m*3 27.8 C 9.7 km/h
429 23-07-2019 11:40:00 28.1 C 13.4 g/m*3 28.1 C 9.7 km/h
430 23-07-2019 11:45:00 28.4 C 13.34 g/m*3 28.4 C 9.7 km/h
431 23-07-2019 11:50:00 28.7 C 13.28 g/m*3 28.7 C 11.3 km/h
432 23-07-2019 11:55:00 28.8 C 13.92 g/m*3 28.8 C 11.3 km/h
433 23-07-2019 12:00:00 28.9 C 13.43 g/m*3 28.9 C 9.7 km/h
434 23-07-2019 12:05:00 29.1 C 13 g/m*3 29.1 C 11.3 km/h
435 23-07-2019 12:10:00 29.2 C 13.36 g/m*3 29.2 C 11.3 km/h
436 23-07-2019 12:15:00 29.3 C 13.14 g/m*3 29.3 C 8.1 km/h
437 23-07-2019 12:20:00 29.4 C 13.5 g/m*3 29.4 C 6.4 km/h
438 23-07-2019 12:25:00 29.5 C 12.99 g/m*3 29.5 C 12.9 km/h
439 23-07-2019 12:30:00 29.6 C 13.06 g/m*3 29.6 C 8.1 km/h
440 23-07-2019 12:35:00 29.8 C 12.6 g/m*3 29.8 C 9.7 km/h
441 23-07-2019 12:40:00 29.9 C 12.97 g/m*3 29.9 C 14.5 km/h
442 23-07-2019 12:45:00 30 C 12.74 g/m*3 30 C 16.1 km/h
443 23-07-2019 12:50:00 30.2 C 13.18 g/m*3 30.2 C 16.1 km/h
444 23-07-2019 12:55:00 30.2 C 12.57 g/m*3 30.2 C 14.5 km/h
445 23-07-2019 13:00:00 30.3 C 12.64 g/m*3 30.3 C 11.3 km/h
446 23-07-2019 13:05:00 30.3 C 12.94 g/m*3 30.3 C 9.7 km/h
447 23-07-2019 13:10:00 30.4 C 12.7 g/m*3 30.4 C 11.3 km/h
448 23-07-2019 13:15:00 30.6 C 12.53 g/m*3 30.6 C 9.7 km/h
449 23-07-2019 13:20:00 30.6 C 12.53 g/m*3 30.6 C 4.8 km/h
450 23-07-2019 13:25:00 30.7 C 12.6 g/m*3 30.7 C 8.1 km/h
Sensor: Nr:Datum:Temp:Abs-Feuchte:Windchill:Wind:
Aussen-T/F 451 23-07-2019 13:30:00 30.8 C 12.66 g/m*3 30.8 C 9.7 km/h
452 23-07-2019 13:35:00 30.9 C 12.41 g/m*3 30.9 C 20.9 km/h
453 23-07-2019 13:40:00 31.1 C 12.23 g/m*3 31.1 C 20.9 km/h
454 23-07-2019 13:45:00 31.2 C 12.94 g/m*3 31.2 C 6.4 km/h
455 23-07-2019 13:50:00 31.2 C 12.94 g/m*3 31.2 C 6.4 km/h
456 23-07-2019 13:55:00 31.3 C 12.36 g/m*3 31.3 C 4.8 km/h
457 23-07-2019 14:00:00 31.3 C 12.68 g/m*3 31.3 C 1.6 km/h
458 23-07-2019 14:05:00 31.4 C 12.42 g/m*3 31.4 C 4.8 km/h
459 23-07-2019 14:10:00 31.7 C 12.96 g/m*3 31.7 C 11.3 km/h
460 23-07-2019 14:15:00 31.9 C 12.76 g/m*3 31.9 C 11.3 km/h
461 23-07-2019 14:20:00 32.1 C 12.9 g/m*3 32.1 C 9.7 km/h
462 23-07-2019 14:25:00 32.2 C 12.62 g/m*3 32.2 C 9.7 km/h
463 23-07-2019 14:30:00 32.3 C 12.35 g/m*3 32.3 C 14.5 km/h
464 23-07-2019 14:35:00 32.3 C 12.35 g/m*3 32.3 C 12.9 km/h
465 23-07-2019 14:40:00 32.4 C 12.41 g/m*3 32.4 C 11.3 km/h
466 23-07-2019 14:45:00 32.5 C 12.48 g/m*3 32.5 C 6.4 km/h
467 23-07-2019 14:50:00 32.6 C 12.9 g/m*3 32.6 C 6.4 km/h
468 23-07-2019 14:55:00 32.7 C 12.61 g/m*3 32.7 C 8.1 km/h
469 23-07-2019 15:00:00 32.8 C 13.03 g/m*3 32.8 C 8.1 km/h
470 23-07-2019 15:05:00 33.1 C 13.6 g/m*3 33.1 C 9.7 km/h
471 23-07-2019 15:10:00 33.2 C 13.31 g/m*3 33.2 C 8.1 km/h
472 23-07-2019 15:15:00 33.4 C 13.09 g/m*3 33.4 C 12.9 km/h
473 23-07-2019 15:20:00 33.6 C 13.23 g/m*3 33.6 C 6.4 km/h
474 23-07-2019 15:25:00 33.8 C 12.62 g/m*3 33.8 C 9.7 km/h
475 23-07-2019 15:30:00 33.8 C 12.62 g/m*3 33.8 C 8.1 km/h
Sensor: Nr:Datum:Temp:Abs-Feuchte:Windchill:Wind:
Aussen-T/F 476 23-07-2019 15:35:00 34 C 12.76 g/m*3 34 C 6.4 km/h
477 23-07-2019 15:40:00 34.4 C 13.03 g/m*3 34.4 C 9.7 km/h
478 23-07-2019 15:45:00 34.7 C 13.23 g/m*3 34.7 C 11.3 km/h
479 23-07-2019 15:50:00 34.9 C 12.98 g/m*3 34.9 C 4.8 km/h
480 23-07-2019 15:55:00 35.2 C 13.58 g/m*3 35.2 C 9.7 km/h
481 23-07-2019 16:00:00 35.5 C 12.98 g/m*3 35.5 C 4.8 km/h
482 23-07-2019 16:05:00 35.6 C 13.05 g/m*3 35.6 C 6.4 km/h
483 23-07-2019 16:10:00 35.6 C 12.23 g/m*3 35.6 C 9.7 km/h
484 23-07-2019 16:15:00 35.6 C 13.46 g/m*3 35.6 C 3.2 km/h
485 23-07-2019 16:20:00 35.8 C 12.77 g/m*3 35.8 C 8.1 km/h
486 23-07-2019 16:25:00 35.9 C 12.84 g/m*3 35.9 C 4.8 km/h
487 23-07-2019 16:30:00 36.1 C 12.56 g/m*3 36.1 C 6.4 km/h
488 23-07-2019 16:35:00 36 C 12.91 g/m*3 36 C 6.4 km/h
489 23-07-2019 16:40:00 35.8 C 12.77 g/m*3 35.8 C 12.9 km/h
490 23-07-2019 16:45:00 35.8 C 12.36 g/m*3 35.8 C 9.7 km/h
491 23-07-2019 16:50:00 35.8 C 12.36 g/m*3 35.8 C 6.4 km/h
492 23-07-2019 16:55:00 36.1 C 12.56 g/m*3 36.1 C 8.1 km/h
493 23-07-2019 17:00:00 36.1 C 12.14 g/m*3 36.1 C 6.4 km/h
494 23-07-2019 17:05:00 36.3 C 12.69 g/m*3 36.3 C 4.8 km/h
495 23-07-2019 17:10:00 36.4 C 12.33 g/m*3 36.4 C 8.1 km/h
496 23-07-2019 17:15:00 36.3 C 11.84 g/m*3 36.3 C 8.1 km/h
497 23-07-2019 17:20:00 36.3 C 12.26 g/m*3 36.3 C 4.8 km/h
498 23-07-2019 17:25:00 36.4 C 12.33 g/m*3 36.4 C 6.4 km/h
499 23-07-2019 17:30:00 36.4 C 12.33 g/m*3 36.4 C 11.3 km/h
500 23-07-2019 17:35:00 36.5 C 11.96 g/m*3 36.5 C 8.1 km/h
Sensor: Nr:Datum:Temp:Abs-Feuchte:Windchill:Wind:
Aussen-T/F 501 23-07-2019 17:40:00 36.6 C 12.02 g/m*3 36.6 C 8.1 km/h
502 23-07-2019 17:45:00 36.6 C 12.02 g/m*3 36.6 C 9.7 km/h
503 23-07-2019 17:50:00 36.3 C 11.84 g/m*3 36.3 C 9.7 km/h
504 23-07-2019 17:55:00 36.4 C 12.33 g/m*3 36.4 C 8.1 km/h
505 23-07-2019 18:00:00 36.7 C 12.95 g/m*3 36.7 C 8.1 km/h
506 23-07-2019 18:05:00 36.8 C 12.15 g/m*3 36.8 C 11.3 km/h
507 23-07-2019 18:10:00 36.8 C 12.15 g/m*3 36.8 C 6.4 km/h
508 23-07-2019 18:15:00 36.7 C 12.52 g/m*3 36.7 C 8.1 km/h
509 23-07-2019 18:20:00 37 C 12.27 g/m*3 37 C 3.2 km/h
510 23-07-2019 18:25:00 36.9 C 11.77 g/m*3 36.9 C 9.7 km/h
511 23-07-2019 18:30:00 36.8 C 12.15 g/m*3 36.8 C 4.8 km/h
512 23-07-2019 18:35:00 36.8 C 12.58 g/m*3 36.8 C 6.4 km/h
513 23-07-2019 18:40:00 36.9 C 12.65 g/m*3 36.9 C 6.4 km/h
514 23-07-2019 18:45:00 36.9 C 11.77 g/m*3 36.9 C 9.7 km/h
515 23-07-2019 18:50:00 36.6 C 12.45 g/m*3 36.6 C 6.4 km/h
516 23-07-2019 18:55:00 36.3 C 12.26 g/m*3 36.3 C 9.7 km/h
517 23-07-2019 19:00:00 36.2 C 12.2 g/m*3 36.2 C 6.4 km/h
518 23-07-2019 19:05:00 36.2 C 12.2 g/m*3 36.2 C 4.8 km/h
519 23-07-2019 19:10:00 36.3 C 12.26 g/m*3 36.3 C 4.8 km/h
520 23-07-2019 19:15:00 36.3 C 12.69 g/m*3 36.3 C 9.7 km/h
521 23-07-2019 19:20:00 36.1 C 11.72 g/m*3 36.1 C 8.1 km/h
522 23-07-2019 19:25:00 35.8 C 12.77 g/m*3 35.8 C 6.4 km/h
523 23-07-2019 19:30:00 35.6 C 12.23 g/m*3 35.6 C 4.8 km/h
524 23-07-2019 19:35:00 35.4 C 12.51 g/m*3 35.4 C 4.8 km/h
525 23-07-2019 19:40:00 35.2 C 11.98 g/m*3 35.2 C 4.8 km/h
Sensor: Nr:Datum:Temp:Abs-Feuchte:Windchill:Wind:
Aussen-T/F 526 23-07-2019 19:45:00 35 C 13.05 g/m*3 35 C 6.4 km/h
527 23-07-2019 19:50:00 34.9 C 14.16 g/m*3 34.9 C 4.8 km/h
528 23-07-2019 19:55:00 34.7 C 13.23 g/m*3 34.7 C 4.8 km/h
529 23-07-2019 20:00:00 34.5 C 12.71 g/m*3 34.5 C 4.8 km/h
530 23-07-2019 20:05:00 34.3 C 13.34 g/m*3 34.3 C 3.2 km/h
531 23-07-2019 20:10:00 34.2 C 14.41 g/m*3 34.2 C 1.6 km/h
532 23-07-2019 20:15:00 33.9 C 14.56 g/m*3 33.9 C 3.2 km/h
533 23-07-2019 20:20:00 33.6 C 14.33 g/m*3 33.6 C 3.2 km/h
534 23-07-2019 20:25:00 33.3 C 14.47 g/m*3 33.3 C 1.6 km/h
535 23-07-2019 20:30:00 32.8 C 15.85 g/m*3 32.8 C 1.6 km/h
536 23-07-2019 20:35:00 32.3 C 14.41 g/m*3 32.3 C 0 km/h
537 23-07-2019 20:40:00 31.7 C 13.95 g/m*3 31.7 C 0 km/h
538 23-07-2019 20:45:00 31.2 C 14.23 g/m*3 31.2 C 0 km/h
539 23-07-2019 20:50:00 30.7 C 14.17 g/m*3 30.7 C 1.6 km/h
540 23-07-2019 20:55:00 30.2 C 14.1 g/m*3 30.2 C 0 km/h
541 23-07-2019 21:00:00 29.7 C 14.02 g/m*3 29.7 C 0 km/h
542 23-07-2019 21:05:00 29.4 C 14.09 g/m*3 29.4 C 1.6 km/h
543 23-07-2019 21:10:00 29.1 C 13.86 g/m*3 29.1 C 1.6 km/h
544 23-07-2019 21:15:00 28.8 C 13.92 g/m*3 28.8 C 1.6 km/h
545 23-07-2019 21:20:00 28.4 C 13.9 g/m*3 28.4 C 1.6 km/h
546 23-07-2019 21:25:00 28.1 C 13.67 g/m*3 28.1 C 1.6 km/h
547 23-07-2019 21:30:00 27.7 C 13.64 g/m*3 27.7 C 1.6 km/h
548 23-07-2019 21:35:00 27.4 C 13.68 g/m*3 27.4 C 1.6 km/h
549 23-07-2019 21:40:00 27.2 C 13.53 g/m*3 27.2 C 1.6 km/h
550 23-07-2019 21:45:00 26.9 C 13.31 g/m*3 26.9 C 3.2 km/h
Sensor: Nr:Datum:Temp:Abs-Feuchte:Windchill:Wind:
Aussen-T/F 551 23-07-2019 21:50:00 26.8 C 13.49 g/m*3 26.8 C 1.6 km/h
552 23-07-2019 21:55:00 26.6 C 13.09 g/m*3 26.6 C 1.6 km/h
553 23-07-2019 22:00:00 26.5 C 13.27 g/m*3 26.5 C 1.6 km/h
554 23-07-2019 22:05:00 26.4 C 13.19 g/m*3 26.4 C 1.6 km/h
555 23-07-2019 22:10:00 26.2 C 13.29 g/m*3 26.2 C 0 km/h
556 23-07-2019 22:15:00 25.8 C 13.48 g/m*3 25.8 C 0 km/h
557 23-07-2019 22:20:00 25.6 C 13.57 g/m*3 25.6 C 0 km/h
558 23-07-2019 22:25:00 25.2 C 13.27 g/m*3 25.2 C 0 km/h
559 23-07-2019 22:30:00 25 C 13.35 g/m*3 25 C 0 km/h
560 23-07-2019 22:35:00 24.8 C 13.66 g/m*3 24.8 C 0 km/h
561 23-07-2019 22:40:00 24.6 C 13.5 g/m*3 24.6 C 0 km/h
562 23-07-2019 22:45:00 24.3 C 13.5 g/m*3 24.3 C 0 km/h
563 23-07-2019 22:50:00 24.1 C 13.57 g/m*3 24.1 C 0 km/h
564 23-07-2019 22:55:00 23.9 C 13.63 g/m*3 23.9 C 0 km/h
565 23-07-2019 23:00:00 23.7 C 13.48 g/m*3 23.7 C 0 km/h
566 23-07-2019 23:05:00 23.5 C 13.53 g/m*3 23.5 C 0 km/h
567 23-07-2019 23:10:00 23.3 C 13.59 g/m*3 23.3 C 0 km/h
568 23-07-2019 23:15:00 23.2 C 13.51 g/m*3 23.2 C 0 km/h
569 23-07-2019 23:20:00 23.1 C 13.64 g/m*3 23.1 C 0 km/h
570 23-07-2019 23:25:00 23 C 13.57 g/m*3 23 C 0 km/h
571 23-07-2019 23:30:00 22.9 C 13.49 g/m*3 22.9 C 0 km/h
572 23-07-2019 23:35:00 22.8 C 13.41 g/m*3 22.8 C 0 km/h
573 23-07-2019 23:40:00 22.7 C 13.54 g/m*3 22.7 C 0 km/h
574 23-07-2019 23:45:00 22.5 C 13.58 g/m*3 22.5 C 0 km/h
575 23-07-2019 23:50:00 22.3 C 13.43 g/m*3 22.3 C 0 km/h
Sensor: Nr:Datum:Temp:Abs-Feuchte:Windchill:Wind:
Aussen-T/F 576 23-07-2019 23:55:00 22.2 C 13.35 g/m*3 22.2 C 0 km/h
577 24-07-2019 00:00:00 22.1 C 13.47 g/m*3 22.1 C 0 km/h
578 24-07-2019 00:05:00 21.9 C 13.51 g/m*3 21.9 C 0 km/h
579 24-07-2019 00:10:00 21.8 C 13.43 g/m*3 21.8 C 0 km/h
580 24-07-2019 00:15:00 21.7 C 13.35 g/m*3 21.7 C 0 km/h
581 24-07-2019 00:20:00 21.6 C 13.47 g/m*3 21.6 C 0 km/h
582 24-07-2019 00:25:00 21.4 C 13.31 g/m*3 21.4 C 0 km/h
583 24-07-2019 00:30:00 21.4 C 13.5 g/m*3 21.4 C 0 km/h
584 24-07-2019 00:35:00 21.3 C 13.42 g/m*3 21.3 C 0 km/h
585 24-07-2019 00:40:00 21.2 C 13.53 g/m*3 21.2 C 0 km/h
586 24-07-2019 00:45:00 21.1 C 13.45 g/m*3 21.1 C 0 km/h
587 24-07-2019 00:50:00 20.9 C 13.3 g/m*3 20.9 C 0 km/h
588 24-07-2019 00:55:00 20.9 C 13.48 g/m*3 20.9 C 0 km/h
589 24-07-2019 01:00:00 20.8 C 13.4 g/m*3 20.8 C 0 km/h
590 24-07-2019 01:05:00 20.7 C 13.68 g/m*3 20.7 C 0 km/h
591 24-07-2019 01:10:00 20.7 C 13.68 g/m*3 20.7 C 0 km/h
592 24-07-2019 01:15:00 20.6 C 13.6 g/m*3 20.6 C 0 km/h
593 24-07-2019 01:20:00 20.6 C 13.6 g/m*3 20.6 C 0 km/h
594 24-07-2019 01:25:00 20.4 C 13.44 g/m*3 20.4 C 0 km/h
595 24-07-2019 01:30:00 20.3 C 13.54 g/m*3 20.3 C 0 km/h
596 24-07-2019 01:35:00 20.2 C 13.46 g/m*3 20.2 C 0 km/h
597 24-07-2019 01:40:00 20.1 C 13.39 g/m*3 20.1 C 0 km/h
598 24-07-2019 01:45:00 19.9 C 13.23 g/m*3 19.9 C 0 km/h
599 24-07-2019 01:50:00 19.8 C 13.15 g/m*3 19.8 C 0 km/h
600 24-07-2019 01:55:00 19.7 C 13.25 g/m*3 19.7 C 0 km/h
Sensor: Nr:Datum:Temp:Abs-Feuchte:Windchill:Wind:
Aussen-T/F 601 24-07-2019 02:00:00 19.7 C 13.25 g/m*3 19.7 C 0 km/h
602 24-07-2019 02:05:00 19.6 C 13.17 g/m*3 19.6 C 0 km/h
603 24-07-2019 02:10:00 19.5 C 13.09 g/m*3 19.5 C 0 km/h
604 24-07-2019 02:15:00 19.5 C 13.09 g/m*3 19.5 C 0 km/h
605 24-07-2019 02:20:00 19.4 C 13.01 g/m*3 19.4 C 0 km/h
606 24-07-2019 02:25:00 19.4 C 13.18 g/m*3 19.4 C 0 km/h
607 24-07-2019 02:30:00 19.3 C 13.1 g/m*3 19.3 C 0 km/h
608 24-07-2019 02:35:00 19.2 C 13.03 g/m*3 19.2 C 0 km/h
609 24-07-2019 02:40:00 19.1 C 13.11 g/m*3 19.1 C 0 km/h
610 24-07-2019 02:45:00 19.1 C 13.11 g/m*3 19.1 C 0 km/h
611 24-07-2019 02:50:00 19 C 13.04 g/m*3 19 C 0 km/h
612 24-07-2019 02:55:00 18.9 C 13.12 g/m*3 18.9 C 0 km/h
613 24-07-2019 03:00:00 18.9 C 13.12 g/m*3 18.9 C 0 km/h
614 24-07-2019 03:05:00 19.1 C 13.28 g/m*3 19.1 C 0 km/h
615 24-07-2019 03:10:00 19.1 C 13.11 g/m*3 19.1 C 0 km/h
616 24-07-2019 03:15:00 18.9 C 12.96 g/m*3 18.9 C 0 km/h
617 24-07-2019 03:20:00 18.8 C 12.88 g/m*3 18.8 C 0 km/h
618 24-07-2019 03:25:00 18.7 C 12.97 g/m*3 18.7 C 0 km/h
619 24-07-2019 03:30:00 18.6 C 13.05 g/m*3 18.6 C 0 km/h
620 24-07-2019 03:35:00 18.5 C 13.13 g/m*3 18.5 C 0 km/h
621 24-07-2019 03:40:00 18.4 C 13.05 g/m*3 18.4 C 0 km/h
622 24-07-2019 03:45:00 18.3 C 12.98 g/m*3 18.3 C 0 km/h
623 24-07-2019 03:50:00 18.2 C 12.9 g/m*3 18.2 C 0 km/h
624 24-07-2019 03:55:00 18.1 C 12.98 g/m*3 18.1 C 0 km/h
625 24-07-2019 04:00:00 18.1 C 12.98 g/m*3 18.1 C 0 km/h
Sensor: Nr:Datum:Temp:Abs-Feuchte:Windchill:Wind:
Aussen-T/F 626 24-07-2019 04:05:00 18 C 12.9 g/m*3 18 C 0 km/h
627 24-07-2019 04:10:00 17.9 C 12.83 g/m*3 17.9 C 0 km/h
628 24-07-2019 04:15:00 17.9 C 12.83 g/m*3 17.9 C 0 km/h
629 24-07-2019 04:20:00 17.8 C 12.75 g/m*3 17.8 C 0 km/h
630 24-07-2019 04:25:00 17.8 C 12.75 g/m*3 17.8 C 0 km/h
631 24-07-2019 04:30:00 17.8 C 12.9 g/m*3 17.8 C 0 km/h
632 24-07-2019 04:35:00 17.7 C 12.82 g/m*3 17.7 C 0 km/h
633 24-07-2019 04:40:00 17.7 C 12.82 g/m*3 17.7 C 0 km/h
634 24-07-2019 04:45:00 17.6 C 12.75 g/m*3 17.6 C 0 km/h
635 24-07-2019 04:50:00 17.5 C 12.67 g/m*3 17.5 C 0 km/h
636 24-07-2019 04:55:00 17.4 C 12.75 g/m*3 17.4 C 0 km/h
637 24-07-2019 05:00:00 17.4 C 12.75 g/m*3 17.4 C 0 km/h
638 24-07-2019 05:05:00 17.4 C 12.75 g/m*3 17.4 C 0 km/h
639 24-07-2019 05:10:00 17.3 C 12.67 g/m*3 17.3 C 0 km/h
640 24-07-2019 05:15:00 17.3 C 12.82 g/m*3 17.3 C 0 km/h
641 24-07-2019 05:20:00 17.3 C 12.82 g/m*3 17.3 C 0 km/h
642 24-07-2019 05:25:00 17.2 C 12.74 g/m*3 17.2 C 0 km/h
643 24-07-2019 05:30:00 17.2 C 12.74 g/m*3 17.2 C 0 km/h
644 24-07-2019 05:35:00 17.2 C 12.89 g/m*3 17.2 C 0 km/h
645 24-07-2019 05:40:00 17.2 C 12.89 g/m*3 17.2 C 0 km/h
646 24-07-2019 05:45:00 17.1 C 12.81 g/m*3 17.1 C 0 km/h
647 24-07-2019 05:50:00 17.1 C 12.66 g/m*3 17.1 C 0 km/h
648 24-07-2019 05:55:00 17.1 C 12.81 g/m*3 17.1 C 0 km/h
649 24-07-2019 06:00:00 17.1 C 12.81 g/m*3 17.1 C 0 km/h
650 24-07-2019 06:05:00 17.1 C 12.81 g/m*3 17.1 C 0 km/h
Sensor: Nr:Datum:Temp:Abs-Feuchte:Windchill:Wind:
Aussen-T/F 651 24-07-2019 06:10:00 17.1 C 12.81 g/m*3 17.1 C 0 km/h
652 24-07-2019 06:15:00 17.1 C 12.81 g/m*3 17.1 C 0 km/h
653 24-07-2019 06:20:00 17 C 12.73 g/m*3 17 C 0 km/h
654 24-07-2019 06:25:00 17.1 C 12.81 g/m*3 17.1 C 0 km/h
655 24-07-2019 06:30:00 17.1 C 12.81 g/m*3 17.1 C 0 km/h
656 24-07-2019 06:35:00 17 C 12.73 g/m*3 17 C 0 km/h
657 24-07-2019 06:40:00 17 C 12.73 g/m*3 17 C 0 km/h
658 24-07-2019 06:45:00 17.1 C 12.96 g/m*3 17.1 C 0 km/h
659 24-07-2019 06:50:00 17.1 C 12.96 g/m*3 17.1 C 0 km/h
660 24-07-2019 06:55:00 17.1 C 12.96 g/m*3 17.1 C 0 km/h
661 24-07-2019 07:00:00 17.1 C 13.1 g/m*3 17.1 C 0 km/h
662 24-07-2019 07:05:00 17.1 C 13.1 g/m*3 17.1 C 0 km/h
663 24-07-2019 07:10:00 17.1 C 13.1 g/m*3 17.1 C 0 km/h
664 24-07-2019 07:15:00 17.1 C 13.1 g/m*3 17.1 C 0 km/h
665 24-07-2019 07:20:00 17.2 C 13.18 g/m*3 17.2 C 0 km/h
666 24-07-2019 07:25:00 17.2 C 13.18 g/m*3 17.2 C 0 km/h
667 24-07-2019 07:30:00 17.3 C 13.26 g/m*3 17.3 C 0 km/h
668 24-07-2019 07:35:00 17.3 C 13.26 g/m*3 17.3 C 0 km/h
669 24-07-2019 07:40:00 17.3 C 13.26 g/m*3 17.3 C 0 km/h
670 24-07-2019 07:45:00 17.4 C 13.34 g/m*3 17.4 C 0 km/h
671 24-07-2019 07:50:00 17.5 C 13.42 g/m*3 17.5 C 0 km/h
672 24-07-2019 07:55:00 17.6 C 13.5 g/m*3 17.6 C 0 km/h
673 24-07-2019 08:00:00 17.6 C 13.5 g/m*3 17.6 C 0 km/h
674 24-07-2019 08:05:00 17.7 C 13.58 g/m*3 17.7 C 0 km/h
675 24-07-2019 08:10:00 17.8 C 13.66 g/m*3 17.8 C 0 km/h
Sensor: Nr:Datum:Temp:Abs-Feuchte:Windchill:Wind:
Aussen-T/F 676 24-07-2019 08:15:00 18 C 13.67 g/m*3 18 C 0 km/h
677 24-07-2019 08:20:00 18.2 C 13.83 g/m*3 18.2 C 0 km/h
678 24-07-2019 08:25:00 18.3 C 13.92 g/m*3 18.3 C 0 km/h
679 24-07-2019 08:30:00 18.4 C 14 g/m*3 18.4 C 0 km/h
680 24-07-2019 08:35:00 18.5 C 13.92 g/m*3 18.5 C 0 km/h
681 24-07-2019 08:40:00 18.6 C 14.01 g/m*3 18.6 C 0 km/h
682 24-07-2019 08:45:00 18.8 C 14.17 g/m*3 18.8 C 0 km/h
683 24-07-2019 08:50:00 18.9 C 14.26 g/m*3 18.9 C 0 km/h
684 24-07-2019 08:55:00 19.1 C 14.43 g/m*3 19.1 C 0 km/h
685 24-07-2019 09:00:00 19.2 C 14.51 g/m*3 19.2 C 0 km/h
686 24-07-2019 09:05:00 19.3 C 14.6 g/m*3 19.3 C 0 km/h
687 24-07-2019 09:10:00 19.5 C 14.77 g/m*3 19.5 C 0 km/h
688 24-07-2019 09:15:00 19.6 C 14.69 g/m*3 19.6 C 0 km/h
689 24-07-2019 09:20:00 19.8 C 14.86 g/m*3 19.8 C 0 km/h
690 24-07-2019 09:25:00 20.1 C 14.95 g/m*3 20.1 C 0 km/h
691 24-07-2019 09:30:00 20.3 C 15.13 g/m*3 20.3 C 0 km/h
692 24-07-2019 09:35:00 20.5 C 15.12 g/m*3 20.5 C 0 km/h
693 24-07-2019 09:40:00 20.7 C 15.12 g/m*3 20.7 C 0 km/h
694 24-07-2019 09:45:00 20.9 C 15.12 g/m*3 20.9 C 0 km/h
695 24-07-2019 09:50:00 21.3 C 15.28 g/m*3 21.3 C 0 km/h
696 24-07-2019 09:55:00 21.6 C 15.17 g/m*3 21.6 C 0 km/h
697 24-07-2019 10:00:00 21.9 C 15.05 g/m*3 21.9 C 0 km/h
698 24-07-2019 10:05:00 22.3 C 15.6 g/m*3 22.3 C 0 km/h
699 24-07-2019 10:10:00 22.6 C 15.47 g/m*3 22.6 C 0 km/h
700 24-07-2019 10:15:00 22.8 C 15.24 g/m*3 22.8 C 0 km/h
Sensor: Nr:Datum:Temp:Abs-Feuchte:Windchill:Wind:
Aussen-T/F 701 24-07-2019 10:20:00 23.1 C 15.3 g/m*3 23.1 C 0 km/h
702 24-07-2019 10:25:00 23.6 C 15.53 g/m*3 23.6 C 0 km/h
703 24-07-2019 10:30:00 24 C 15.66 g/m*3 24 C 0 km/h
704 24-07-2019 10:35:00 24.3 C 15.71 g/m*3 24.3 C 0 km/h
705 24-07-2019 10:40:00 24.6 C 15.53 g/m*3 24.6 C 0 km/h
706 24-07-2019 10:45:00 24.9 C 15.34 g/m*3 24.9 C 0 km/h
707 24-07-2019 10:50:00 25.3 C 15.69 g/m*3 25.3 C 0 km/h
708 24-07-2019 10:55:00 25.6 C 15.95 g/m*3 25.6 C 0 km/h
709 24-07-2019 11:00:00 25.8 C 16.13 g/m*3 25.8 C 0 km/h
710 24-07-2019 11:05:00 26 C 15.58 g/m*3 26 C 0 km/h
711 24-07-2019 11:10:00 26.3 C 16.34 g/m*3 26.3 C 0 km/h
712 24-07-2019 11:15:00 26.6 C 16.36 g/m*3 26.6 C 0 km/h
713 24-07-2019 11:20:00 26.8 C 15.27 g/m*3 26.8 C 0 km/h
714 24-07-2019 11:25:00 27.1 C 15.53 g/m*3 27.1 C 0 km/h
715 24-07-2019 11:30:00 27.4 C 15.52 g/m*3 27.4 C 0 km/h
716 24-07-2019 11:35:00 27.9 C 15.69 g/m*3 27.9 C 0 km/h
717 24-07-2019 11:40:00 28.3 C 15.2 g/m*3 28.3 C 0 km/h
718 24-07-2019 11:45:00 28.6 C 15.18 g/m*3 28.6 C 0 km/h
719 24-07-2019 11:50:00 29 C 15.22 g/m*3 29 C 0 km/h
720 24-07-2019 11:55:00 29.4 C 15.56 g/m*3 29.4 C 0 km/h
721 24-07-2019 12:00:00 29.8 C 15.9 g/m*3 29.8 C 0 km/h
722 24-07-2019 12:05:00 30.3 C 14.79 g/m*3 30.3 C 0 km/h
723 24-07-2019 12:10:00 30.7 C 14.8 g/m*3 30.7 C 0 km/h
724 24-07-2019 12:15:00 31.2 C 14.23 g/m*3 31.2 C 0 km/h
725 24-07-2019 12:20:00 31.7 C 13.95 g/m*3 31.7 C 0 km/h
Sensor: Nr:Datum:Temp:Abs-Feuchte:Windchill:Wind:
Aussen-T/F 726 24-07-2019 12:25:00 32.1 C 14.59 g/m*3 32.1 C 0 km/h
727 24-07-2019 12:30:00 32.4 C 13.1 g/m*3 32.4 C 0 km/h
728 24-07-2019 12:35:00 32.8 C 13.03 g/m*3 32.8 C 11.3 km/h
729 24-07-2019 12:40:00 33 C 13.17 g/m*3 33 C 0 km/h
730 24-07-2019 12:45:00 33.3 C 13.74 g/m*3 33.3 C 6.4 km/h
731 24-07-2019 12:50:00 33.5 C 13.52 g/m*3 33.5 C 9.7 km/h
732 24-07-2019 12:55:00 33.7 C 13.3 g/m*3 33.7 C 8.1 km/h
733 24-07-2019 13:00:00 33.8 C 12.62 g/m*3 33.8 C 8.1 km/h
734 24-07-2019 13:05:00 33.9 C 11.57 g/m*3 33.9 C 8.1 km/h
735 24-07-2019 13:10:00 33.9 C 11.2 g/m*3 33.9 C 4.8 km/h
736 24-07-2019 13:15:00 33.9 C 11.57 g/m*3 33.9 C 6.4 km/h
737 24-07-2019 13:20:00 34 C 11.26 g/m*3 34 C 9.7 km/h
738 24-07-2019 13:25:00 34.1 C 10.94 g/m*3 34.1 C 11.3 km/h
739 24-07-2019 13:30:00 34.2 C 10.62 g/m*3 34.2 C 9.7 km/h
740 24-07-2019 13:35:00 34.3 C 11.05 g/m*3 34.3 C 4.8 km/h
741 24-07-2019 13:40:00 34.3 C 10.29 g/m*3 34.3 C 6.4 km/h
742 24-07-2019 13:45:00 34.4 C 10.34 g/m*3 34.4 C 8.1 km/h
743 24-07-2019 13:50:00 34.6 C 10.45 g/m*3 34.6 C 3.2 km/h
744 24-07-2019 13:55:00 34.7 C 10.12 g/m*3 34.7 C 4.8 km/h
745 24-07-2019 14:00:00 34.8 C 10.56 g/m*3 34.8 C 6.4 km/h
746 24-07-2019 14:05:00 34.8 C 10.17 g/m*3 34.8 C 6.4 km/h
747 24-07-2019 14:10:00 34.9 C 10.62 g/m*3 34.9 C 8.1 km/h
748 24-07-2019 14:15:00 35 C 10.67 g/m*3 35 C 4.8 km/h
749 24-07-2019 14:20:00 35.1 C 10.33 g/m*3 35.1 C 6.4 km/h
750 24-07-2019 14:25:00 35.3 C 10.84 g/m*3 35.3 C 6.4 km/h
Sensor: Nr:Datum:Temp:Abs-Feuchte:Windchill:Wind:
Aussen-T/F 751 24-07-2019 14:30:00 35.3 C 10.44 g/m*3 35.3 C 6.4 km/h
752 24-07-2019 14:35:00 35.5 C 10.55 g/m*3 35.5 C 4.8 km/h
753 24-07-2019 14:40:00 35.6 C 11.42 g/m*3 35.6 C 4.8 km/h
754 24-07-2019 14:45:00 35.8 C 11.13 g/m*3 35.8 C 4.8 km/h
755 24-07-2019 14:50:00 35.8 C 11.13 g/m*3 35.8 C 4.8 km/h
756 24-07-2019 14:55:00 35.9 C 11.6 g/m*3 35.9 C 11.3 km/h
757 24-07-2019 15:00:00 35.9 C 11.6 g/m*3 35.9 C 4.8 km/h
758 24-07-2019 15:05:00 36.1 C 12.56 g/m*3 36.1 C 6.4 km/h
759 24-07-2019 15:10:00 36.2 C 11.78 g/m*3 36.2 C 8.1 km/h
760 24-07-2019 15:15:00 36.3 C 11.42 g/m*3 36.3 C 9.7 km/h
761 24-07-2019 15:20:00 36.3 C 10.99 g/m*3 36.3 C 8.1 km/h
762 24-07-2019 15:25:00 36.4 C 10.63 g/m*3 36.4 C 3.2 km/h
763 24-07-2019 15:30:00 36.8 C 10.85 g/m*3 36.8 C 4.8 km/h
764 24-07-2019 15:35:00 37.2 C 10.19 g/m*3 37.2 C 4.8 km/h
765 24-07-2019 15:40:00 37.4 C 10.74 g/m*3 37.4 C 6.4 km/h
766 24-07-2019 15:45:00 37.9 C 11.93 g/m*3 37.9 C 4.8 km/h
767 24-07-2019 15:50:00 38.4 C 11.77 g/m*3 38.4 C 3.2 km/h
768 24-07-2019 15:55:00 38.8 C 12.01 g/m*3 38.8 C 8.1 km/h
769 24-07-2019 16:00:00 39.2 C 11.27 g/m*3 39.2 C 6.4 km/h
770 24-07-2019 16:05:00 39.3 C 10.84 g/m*3 39.3 C 6.4 km/h
771 24-07-2019 16:10:00 39.4 C 11.39 g/m*3 39.4 C 8.1 km/h
772 24-07-2019 16:15:00 39.4 C 12.38 g/m*3 39.4 C 11.3 km/h
773 24-07-2019 16:20:00 39.5 C 12.44 g/m*3 39.5 C 9.7 km/h
774 24-07-2019 16:25:00 39.7 C 12.06 g/m*3 39.7 C 6.4 km/h
775 24-07-2019 16:30:00 39.8 C 11.11 g/m*3 39.8 C 3.2 km/h
Sensor: Nr:Datum:Temp:Abs-Feuchte:Windchill:Wind:
Aussen-T/F 776 24-07-2019 16:35:00 39.7 C 11.06 g/m*3 39.7 C 6.4 km/h
777 24-07-2019 16:40:00 39.6 C 11 g/m*3 39.6 C 4.8 km/h
778 24-07-2019 16:45:00 39.7 C 11.56 g/m*3 39.7 C 3.2 km/h
779 24-07-2019 16:50:00 39.9 C 11.17 g/m*3 39.9 C 6.4 km/h
780 24-07-2019 16:55:00 39.9 C 12.19 g/m*3 39.9 C 4.8 km/h
781 24-07-2019 17:00:00 39.9 C 11.68 g/m*3 39.9 C 6.4 km/h
782 24-07-2019 17:05:00 40.1 C 13.85 g/m*3 40.1 C 4.8 km/h
783 24-07-2019 17:10:00 39.9 C 10.66 g/m*3 39.9 C 8.1 km/h
784 24-07-2019 17:15:00 39.9 C 11.68 g/m*3 39.9 C 4.8 km/h
785 24-07-2019 17:20:00 40 C 11.23 g/m*3 40 C 4.8 km/h
786 24-07-2019 17:25:00 39.9 C 11.17 g/m*3 39.9 C 8.1 km/h
787 24-07-2019 17:30:00 39.8 C 11.11 g/m*3 39.8 C 11.3 km/h
788 24-07-2019 17:35:00 39.5 C 11.45 g/m*3 39.5 C 9.7 km/h
789 24-07-2019 17:40:00 39.3 C 10.84 g/m*3 39.3 C 12.9 km/h
790 24-07-2019 17:45:00 39 C 11.16 g/m*3 39 C 14.5 km/h
791 24-07-2019 17:50:00 38.9 C 11.1 g/m*3 38.9 C 14.5 km/h
792 24-07-2019 17:55:00 39.1 C 11.71 g/m*3 39.1 C 8.1 km/h
793 24-07-2019 18:00:00 39.4 C 11.39 g/m*3 39.4 C 6.4 km/h
794 24-07-2019 18:05:00 39.6 C 12 g/m*3 39.6 C 4.8 km/h
795 24-07-2019 18:10:00 39.8 C 11.11 g/m*3 39.8 C 6.4 km/h
796 24-07-2019 18:15:00 39.8 C 11.11 g/m*3 39.8 C 11.3 km/h
797 24-07-2019 18:20:00 39.4 C 10.89 g/m*3 39.4 C 11.3 km/h
798 24-07-2019 18:25:00 39.2 C 11.27 g/m*3 39.2 C 12.9 km/h
799 24-07-2019 18:30:00 39.2 C 10.78 g/m*3 39.2 C 11.3 km/h
800 24-07-2019 18:35:00 39.2 C 11.27 g/m*3 39.2 C 9.7 km/h
Sensor: Nr:Datum:Temp:Abs-Feuchte:Windchill:Wind:
Aussen-T/F 801 24-07-2019 18:40:00 39.1 C 11.22 g/m*3 39.1 C 8.1 km/h
802 24-07-2019 18:45:00 39.1 C 10.73 g/m*3 39.1 C 8.1 km/h
803 24-07-2019 18:50:00 39.1 C 11.22 g/m*3 39.1 C 11.3 km/h
804 24-07-2019 18:55:00 38.9 C 11.1 g/m*3 38.9 C 11.3 km/h
805 24-07-2019 19:00:00 38.8 C 10.57 g/m*3 38.8 C 11.3 km/h
806 24-07-2019 19:05:00 38.7 C 10.99 g/m*3 38.7 C 11.3 km/h
807 24-07-2019 19:10:00 38.6 C 12.84 g/m*3 38.6 C 9.7 km/h
808 24-07-2019 19:15:00 38.7 C 12.43 g/m*3 38.7 C 4.8 km/h
809 24-07-2019 19:20:00 38.8 C 11.05 g/m*3 38.8 C 8.1 km/h
810 24-07-2019 19:25:00 38.8 C 13.45 g/m*3 38.8 C 6.4 km/h
811 24-07-2019 19:30:00 38.7 C 13.86 g/m*3 38.7 C 1.6 km/h
812 24-07-2019 19:35:00 38.7 C 14.34 g/m*3 38.7 C 1.6 km/h
813 24-07-2019 19:40:00 38.4 C 14.59 g/m*3 38.4 C 0 km/h
814 24-07-2019 19:45:00 38.2 C 13.98 g/m*3 38.2 C 0 km/h
815 24-07-2019 19:50:00 37.9 C 14.23 g/m*3 37.9 C 1.6 km/h
816 24-07-2019 19:55:00 37.6 C 14.01 g/m*3 37.6 C 1.6 km/h
817 24-07-2019 20:00:00 37.1 C 14.98 g/m*3 37.1 C 0 km/h
818 24-07-2019 20:05:00 36.4 C 14.03 g/m*3 36.4 C 0 km/h
819 24-07-2019 20:10:00 35.6 C 13.87 g/m*3 35.6 C 0 km/h
820 24-07-2019 20:15:00 34.8 C 13.69 g/m*3 34.8 C 1.6 km/h
821 24-07-2019 20:20:00 33.9 C 14.18 g/m*3 33.9 C 0 km/h
822 24-07-2019 20:25:00 33.1 C 14.31 g/m*3 33.1 C 0 km/h
823 24-07-2019 20:30:00 32.4 C 14.48 g/m*3 32.4 C 0 km/h
824 24-07-2019 20:35:00 31.7 C 14.62 g/m*3 31.7 C 1.6 km/h
825 24-07-2019 20:40:00 31.2 C 14.23 g/m*3 31.2 C 0 km/h
Sensor: Nr:Datum:Temp:Abs-Feuchte:Windchill:Wind:
Aussen-T/F 826 24-07-2019 20:45:00 30.8 C 14.25 g/m*3 30.8 C 0 km/h
827 24-07-2019 20:50:00 30.4 C 13.94 g/m*3 30.4 C 1.6 km/h
828 24-07-2019 20:55:00 30.2 C 14.1 g/m*3 30.2 C 0 km/h
829 24-07-2019 21:00:00 29.9 C 14.18 g/m*3 29.9 C 1.6 km/h
830 24-07-2019 21:05:00 29.7 C 14.02 g/m*3 29.7 C 0 km/h
831 24-07-2019 21:10:00 29.4 C 14.09 g/m*3 29.4 C 0 km/h
832 24-07-2019 21:15:00 29.2 C 13.94 g/m*3 29.2 C 0 km/h
833 24-07-2019 21:20:00 29 C 14.07 g/m*3 29 C 1.6 km/h
834 24-07-2019 21:25:00 28.8 C 13.92 g/m*3 28.8 C 1.6 km/h
835 24-07-2019 21:30:00 28.7 C 13.85 g/m*3 28.7 C 1.6 km/h
836 24-07-2019 21:35:00 28.5 C 13.97 g/m*3 28.5 C 1.6 km/h
837 24-07-2019 21:40:00 28.3 C 13.55 g/m*3 28.3 C 1.6 km/h
838 24-07-2019 21:45:00 28.2 C 13.75 g/m*3 28.2 C 1.6 km/h
839 24-07-2019 21:50:00 28.1 C 13.67 g/m*3 28.1 C 1.6 km/h
840 24-07-2019 21:55:00 28.1 C 13.67 g/m*3 28.1 C 1.6 km/h
841 24-07-2019 22:00:00 27.9 C 13.52 g/m*3 27.9 C 1.6 km/h
842 24-07-2019 22:05:00 27.8 C 13.72 g/m*3 27.8 C 1.6 km/h
843 24-07-2019 22:10:00 27.8 C 13.72 g/m*3 27.8 C 1.6 km/h
844 24-07-2019 22:15:00 27.7 C 13.64 g/m*3 27.7 C 0 km/h
845 24-07-2019 22:20:00 27.6 C 13.57 g/m*3 27.6 C 1.6 km/h
846 24-07-2019 22:25:00 27.4 C 13.68 g/m*3 27.4 C 1.6 km/h
847 24-07-2019 22:30:00 27.3 C 13.61 g/m*3 27.3 C 0 km/h
848 24-07-2019 22:35:00 27.2 C 13.79 g/m*3 27.2 C 0 km/h
849 24-07-2019 22:40:00 27.1 C 13.72 g/m*3 27.1 C 0 km/h
850 24-07-2019 22:45:00 27 C 13.64 g/m*3 27 C 0 km/h
Sensor: Nr:Datum:Temp:Abs-Feuchte:Windchill:Wind:
Aussen-T/F 851 24-07-2019 22:50:00 26.9 C 13.56 g/m*3 26.9 C 0 km/h
852 24-07-2019 22:55:00 26.8 C 13.74 g/m*3 26.8 C 0 km/h
853 24-07-2019 23:00:00 26.8 C 13.74 g/m*3 26.8 C 0 km/h
854 24-07-2019 23:05:00 26.6 C 13.84 g/m*3 26.6 C 0 km/h
855 24-07-2019 23:10:00 26.4 C 13.94 g/m*3 26.4 C 0 km/h
856 24-07-2019 23:15:00 26.2 C 14.03 g/m*3 26.2 C 0 km/h
857 24-07-2019 23:20:00 25.9 C 14.04 g/m*3 25.9 C 0 km/h
858 24-07-2019 23:25:00 25.7 C 13.89 g/m*3 25.7 C 0 km/h
859 24-07-2019 23:30:00 25.4 C 13.65 g/m*3 25.4 C 0 km/h
860 24-07-2019 23:35:00 25.2 C 13.5 g/m*3 25.2 C 0 km/h
861 24-07-2019 23:40:00 25 C 13.81 g/m*3 25 C 0 km/h
862 24-07-2019 23:45:00 24.8 C 13.88 g/m*3 24.8 C 0 km/h
863 24-07-2019 23:50:00 24.6 C 13.95 g/m*3 24.6 C 0 km/h
864 24-07-2019 23:55:00 24.4 C 14.02 g/m*3 24.4 C 0 km/h

Legende:
   Min
   Max


Maximal/Minimal-Werte vom 22.07.2019 - 24.07.2019

Sensor Min Max Avg
Temp
(Aussen-T/F)
14.1 °C
22-07-2019  06:25:00
40.1 °C
24-07-2019  17:05:00
24.8 °C
Abs-Feuchte
(Aussen-T/F)
10.12 g/m*3
24-07-2019  13:55:00
16.36 g/m*3
24-07-2019  11:15:00
12.74 g/m*3
Windchill
(Aussen-T/F)
14.1 C
22-07-2019  06:25:00
40.1 C
24-07-2019  17:05:00
24.77 C

Die Daten stammen von einer Davis Vantage Pro 2 Wetter-Station und werden unter Linux mit der Software wview2wettercgi und aufbereitet. Alle Angaben erfolgen ohne Gewähr für ihre Vollständigkeit oder Richtigkeit.
Kontakt: Rainer Krienke krienke@uni-koblenz.de . Meine Webseiten an der Uni Koblenz oder privat.
Version: $Revision: 0.78 $